SWA2500 PHTO-PHNL

Flight info

Callsign SWA2500
Flight time 0h 44m
Altitude 26000
Route ITO V22 OKALA V16 LNY JULLE5
Aircraft B38M/M-SDE1FGHILORVWXY/HB1

Departure

Time 2026-04-21 07:08
Airport Hilo International Airport (PHTO)

Arrival

Time 2026-04-21 07:53
Airport Daniel K. Inouye International Airport (PHNL)
Time Latitude Longitude Altitude Speed Heading
2026-04-21 06:38 19.71539 -155.03919 70 ft 0 kts 180°
2026-04-21 07:00 19.71541 -155.03919 69 ft 2 kts 180°
2026-04-21 07:00 19.71556 -155.03919 69 ft 2 kts 180°
2026-04-21 07:01 19.71566 -155.03919 68 ft 1 kts 180°
2026-04-21 07:01 19.71580 -155.03919 68 ft 2 kts 166°
2026-04-21 07:01 19.71607 -155.03932 67 ft 2 kts 142°
2026-04-21 07:02 19.71618 -155.03941 67 ft 2 kts 130°
2026-04-21 07:02 19.71627 -155.03955 67 ft 2 kts 118°
2026-04-21 07:02 19.71633 -155.03969 67 ft 2 kts 106°
2026-04-21 07:02 19.71636 -155.03984 67 ft 1 kts 94°
2026-04-21 07:03 19.71636 -155.03992 67 ft 1 kts 88°
2026-04-21 07:03 19.71636 -155.03995 67 ft 0 kts 89°
2026-04-21 07:04 19.71636 -155.03993 67 ft 1 kts 89°
2026-04-21 07:04 19.71637 -155.03973 67 ft 3 kts 89°
2026-04-21 07:04 19.71636 -155.03937 67 ft 9 kts 91°
2026-04-21 07:05 19.71637 -155.03828 67 ft 18 kts 90°
2026-04-21 07:05 19.71649 -155.03705 66 ft 10 kts 33°
2026-04-21 07:05 19.71720 -155.03693 65 ft 12 kts 11°
2026-04-21 07:05 19.71837 -155.03683 62 ft 21 kts
2026-04-21 07:06 19.71994 -155.03656 59 ft 23 kts 63°
2026-04-21 07:06 19.72010 -155.03465 59 ft 29 kts 89°
2026-04-21 07:06 19.72010 -155.03232 61 ft 35 kts 89°
2026-04-21 07:06 19.72015 -155.02980 61 ft 14 kts 69°
2026-04-21 07:07 19.72090 -155.02942 61 ft 11 kts 353°
2026-04-21 07:07 19.72138 -155.02979 61 ft 7 kts 267°
2026-04-21 07:07 19.72135 -155.03044 60 ft 15 kts 269°
2026-04-21 07:07 19.72137 -155.03490 59 ft 101 kts 270°
2026-04-21 07:08 19.72160 -155.04465 148 ft 158 kts 271°
2026-04-21 07:08 19.72172 -155.05675 883 ft 170 kts 269°
2026-04-21 07:08 19.72262 -155.06931 1333 ft 170 kts 285°
2026-04-21 07:08 19.72942 -155.07883 1356 ft 159 kts 333°
2026-04-21 07:09 19.74051 -155.08221 1527 ft 180 kts
2026-04-21 07:09 19.75297 -155.08025 2131 ft 186 kts 15°
2026-04-21 07:09 19.76611 -155.07726 2656 ft 200 kts 13°
2026-04-21 07:09 19.78041 -155.07449 3181 ft 214 kts 12°
2026-04-21 07:10 19.79557 -155.07176 3640 ft 234 kts 11°
2026-04-21 07:10 19.81238 -155.06868 4243 ft 251 kts 11°
2026-04-21 07:10 19.82985 -155.06543 4935 ft 263 kts 11°
2026-04-21 07:10 19.84802 -155.06204 5707 ft 271 kts
2026-04-21 07:11 19.86669 -155.05881 6608 ft 273 kts
2026-04-21 07:11 19.88554 -155.05908 7394 ft 277 kts 346°
2026-04-21 07:11 19.90307 -155.06752 8227 ft 278 kts 321°
2026-04-21 07:11 19.91668 -155.08180 9011 ft 282 kts 311°
2026-04-21 07:12 19.92961 -155.09750 9897 ft 282 kts 310°
2026-04-21 07:12 19.94282 -155.11333 10502 ft 293 kts 311°
2026-04-21 07:12 19.95653 -155.12956 11121 ft 303 kts 311°
2026-04-21 07:12 19.97056 -155.14615 11910 ft 306 kts 311°
2026-04-21 07:13 19.98481 -155.16304 12735 ft 308 kts 311°
2026-04-21 07:13 19.99894 -155.18002 13469 ft 312 kts 310°
2026-04-21 07:13 20.01332 -155.19750 14364 ft 312 kts 309°
2026-04-21 07:13 20.02756 -155.21481 15154 ft 315 kts 309°
2026-04-21 07:14 20.04178 -155.23210 15975 ft 316 kts 310°
2026-04-21 07:14 20.05633 -155.24982 16778 ft 317 kts 308°
2026-04-21 07:14 20.06968 -155.26813 17523 ft 319 kts 304°
2026-04-21 07:14 20.08219 -155.28778 18231 ft 322 kts 302°
2026-04-21 07:15 20.09421 -155.30762 19000 ft 322 kts 302°
2026-04-21 07:15 20.10642 -155.32768 19724 ft 324 kts 302°
2026-04-21 07:15 20.11882 -155.34770 20400 ft 326 kts 303°
2026-04-21 07:15 20.13136 -155.36769 21136 ft 326 kts 303°
2026-04-21 07:16 20.14328 -155.38785 21814 ft 326 kts 301°
2026-04-21 07:16 20.15438 -155.40889 22391 ft 330 kts 299°
2026-04-21 07:16 20.16524 -155.43048 23015 ft 331 kts 298°
2026-04-21 07:16 20.17601 -155.45198 23562 ft 334 kts 299°
2026-04-21 07:17 20.18713 -155.47394 24134 ft 337 kts 300°
2026-04-21 07:17 20.19822 -155.49567 24753 ft 337 kts 300°
2026-04-21 07:17 20.20958 -155.51782 25217 ft 342 kts 300°
2026-04-21 07:17 20.22085 -155.53972 25800 ft 342 kts 300°
2026-04-21 07:18 20.23251 -155.56235 26047 ft 349 kts 300°
2026-04-21 07:18 20.24392 -155.58513 26045 ft 347 kts 297°
2026-04-21 07:18 20.25275 -155.60860 26042 ft 346 kts 289°
2026-04-21 07:18 20.25744 -155.63380 26040 ft 351 kts 279°
2026-04-21 07:19 20.25803 -155.66003 26039 ft 353 kts 271°
2026-04-21 07:19 20.25537 -155.68617 26036 ft 360 kts 263°
2026-04-21 07:19 20.24895 -155.71202 26034 ft 362 kts 257°
2026-04-21 07:19 20.24038 -155.73721 26035 ft 364 kts 254°
2026-04-21 07:20 20.23094 -155.76241 26035 ft 366 kts 253°
2026-04-21 07:20 20.22140 -155.78744 26036 ft 364 kts 255°
2026-04-21 07:20 20.21450 -155.81288 26037 ft 358 kts 266°
2026-04-21 07:20 20.21369 -155.83925 26038 ft 352 kts 279°
2026-04-21 07:21 20.21795 -155.86465 26038 ft 349 kts 288°
2026-04-21 07:21 20.22527 -155.88916 26036 ft 347 kts 292°
2026-04-21 07:21 20.23457 -155.91234 26036 ft 345 kts 297°
2026-04-21 07:21 20.24574 -155.93532 26035 ft 345 kts 300°
2026-04-21 07:22 20.25728 -155.95760 26036 ft 347 kts 300°
2026-04-21 07:22 20.26903 -155.98000 26034 ft 345 kts 300°
2026-04-21 07:22 20.28068 -156.00240 26036 ft 345 kts 300°
2026-04-21 07:22 20.29218 -156.02472 26036 ft 344 kts 300°
2026-04-21 07:23 20.30353 -156.04694 26037 ft 347 kts 300°
2026-04-21 07:23 20.31500 -156.06955 26036 ft 346 kts 300°
2026-04-21 07:23 20.32640 -156.09213 26036 ft 344 kts 300°
2026-04-21 07:23 20.33772 -156.11461 26036 ft 346 kts 300°
2026-04-21 07:24 20.34913 -156.13725 26037 ft 346 kts 300°
2026-04-21 07:24 20.36035 -156.15950 26036 ft 346 kts 299°
2026-04-21 07:24 20.37176 -156.18216 26035 ft 347 kts 300°
2026-04-21 07:24 20.38313 -156.20474 26035 ft 346 kts 299°
2026-04-21 07:25 20.39451 -156.22739 26035 ft 346 kts 300°
2026-04-21 07:25 20.40587 -156.24999 26035 ft 347 kts 299°
2026-04-21 07:25 20.41721 -156.27257 26035 ft 346 kts 299°
2026-04-21 07:25 20.42853 -156.29512 26037 ft 345 kts 300°
2026-04-21 07:26 20.43985 -156.31770 26036 ft 345 kts 300°
2026-04-21 07:26 20.45112 -156.34019 26035 ft 344 kts 299°
2026-04-21 07:26 20.46232 -156.36255 26033 ft 346 kts 300°
2026-04-21 07:26 20.47380 -156.38539 26033 ft 345 kts 300°
2026-04-21 07:27 20.48503 -156.40779 26034 ft 345 kts 300°
2026-04-21 07:27 20.49631 -156.43034 26035 ft 345 kts 300°
2026-04-21 07:27 20.50762 -156.45294 26035 ft 345 kts 299°
2026-04-21 07:27 20.51888 -156.47543 26037 ft 346 kts 300°
2026-04-21 07:28 20.53022 -156.49808 26037 ft 347 kts 300°
2026-04-21 07:28 20.54159 -156.52078 26034 ft 346 kts 300°
2026-04-21 07:28 20.55293 -156.54347 26034 ft 346 kts 300°
2026-04-21 07:28 20.56422 -156.56610 26035 ft 346 kts 300°
2026-04-21 07:29 20.57554 -156.58879 26034 ft 345 kts 300°
2026-04-21 07:29 20.58679 -156.61131 26035 ft 346 kts 300°
2026-04-21 07:29 20.59816 -156.63406 26034 ft 346 kts 300°
2026-04-21 07:29 20.60944 -156.65663 26035 ft 345 kts 300°
2026-04-21 07:30 20.62072 -156.67925 26034 ft 346 kts 300°
2026-04-21 07:30 20.63209 -156.70206 26032 ft 346 kts 300°
2026-04-21 07:30 20.64331 -156.72455 26035 ft 346 kts 300°
2026-04-21 07:30 20.65464 -156.74731 26034 ft 346 kts 300°
2026-04-21 07:31 20.66589 -156.76994 26035 ft 346 kts 300°
2026-04-21 07:31 20.67716 -156.79265 26038 ft 346 kts 300°
2026-04-21 07:31 20.68836 -156.81517 26042 ft 344 kts 300°
2026-04-21 07:31 20.69964 -156.83781 26050 ft 347 kts 300°
2026-04-21 07:32 20.71092 -156.86049 25916 ft 346 kts 300°
2026-04-21 07:32 20.72218 -156.88319 25656 ft 343 kts 300°
2026-04-21 07:32 20.73318 -156.90538 25396 ft 336 kts 300°
2026-04-21 07:32 20.74400 -156.92720 24963 ft 332 kts 300°
2026-04-21 07:33 20.75474 -156.94884 24533 ft 328 kts 300°
2026-04-21 07:33 20.76506 -156.97082 24138 ft 333 kts 296°
2026-04-21 07:33 20.77369 -156.99365 23672 ft 337 kts 292°
2026-04-21 07:33 20.78135 -157.01718 23205 ft 333 kts 291°
2026-04-21 07:34 20.78856 -157.04059 22799 ft 328 kts 290°
2026-04-21 07:34 20.79559 -157.06332 22425 ft 323 kts 290°
2026-04-21 07:34 20.80276 -157.08621 22011 ft 323 kts 290°
2026-04-21 07:34 20.80996 -157.10881 21589 ft 327 kts 290°
2026-04-21 07:35 20.81729 -157.13168 21131 ft 324 kts 290°
2026-04-21 07:35 20.82456 -157.15428 20740 ft 318 kts 290°
2026-04-21 07:35 20.83166 -157.17633 20328 ft 314 kts 290°
2026-04-21 07:35 20.83873 -157.19830 19919 ft 312 kts 290°
2026-04-21 07:36 20.84590 -157.22051 19508 ft 317 kts 290°
2026-04-21 07:36 20.85306 -157.24274 19081 ft 316 kts 289°
2026-04-21 07:36 20.86012 -157.26469 18669 ft 311 kts 289°
2026-04-21 07:36 20.86706 -157.28630 18277 ft 307 kts 289°
2026-04-21 07:37 20.87396 -157.30783 17848 ft 303 kts 288°
2026-04-21 07:37 20.88069 -157.32880 17459 ft 301 kts 288°
2026-04-21 07:37 20.88758 -157.35030 17077 ft 308 kts 288°
2026-04-21 07:37 20.89461 -157.37222 16668 ft 309 kts 288°
2026-04-21 07:38 20.90145 -157.39349 16286 ft 305 kts 288°
2026-04-21 07:38 20.90830 -157.41483 15887 ft 301 kts 288°
2026-04-21 07:38 20.91506 -157.43593 15491 ft 298 kts 288°
2026-04-21 07:38 20.92176 -157.45682 15099 ft 296 kts 288°
2026-04-21 07:39 20.92845 -157.47775 14702 ft 302 kts 288°
2026-04-21 07:39 20.93518 -157.49881 14298 ft 302 kts 289°
2026-04-21 07:39 20.94193 -157.51991 13889 ft 299 kts 289°
2026-04-21 07:39 20.94865 -157.54089 13503 ft 296 kts 289°
2026-04-21 07:40 20.95532 -157.56171 13115 ft 297 kts 289°
2026-04-21 07:40 20.96207 -157.58275 12725 ft 300 kts 289°
2026-04-21 07:40 20.96879 -157.60378 12326 ft 300 kts 289°
2026-04-21 07:40 20.97550 -157.62482 11923 ft 297 kts 289°
2026-04-21 07:41 20.98211 -157.64555 11527 ft 293 kts 289°
2026-04-21 07:41 20.98865 -157.66602 11130 ft 291 kts 289°
2026-04-21 07:41 20.99517 -157.68634 10753 ft 288 kts 289°
2026-04-21 07:41 21.00162 -157.70644 10384 ft 289 kts 289°
2026-04-21 07:42 21.00821 -157.72708 9997 ft 289 kts 289°
2026-04-21 07:42 21.01457 -157.74709 9877 ft 276 kts 289°
2026-04-21 07:42 21.02060 -157.76610 9665 ft 269 kts 289°
2026-04-21 07:42 21.02655 -157.78485 9275 ft 269 kts 289°
2026-04-21 07:43 21.03252 -157.80376 8935 ft 267 kts 289°
2026-04-21 07:43 21.03848 -157.82262 8592 ft 265 kts 289°
2026-04-21 07:43 21.04434 -157.84105 8279 ft 262 kts 289°
2026-04-21 07:43 21.05026 -157.85954 7963 ft 266 kts 289°
2026-04-21 07:44 21.05634 -157.87857 7623 ft 268 kts 289°
2026-04-21 07:44 21.06225 -157.89719 7289 ft 265 kts 289°
2026-04-21 07:44 21.06814 -157.91574 6958 ft 264 kts 289°
2026-04-21 07:44 21.07408 -157.93454 6619 ft 263 kts 288°
2026-04-21 07:45 21.07834 -157.95346 6293 ft 263 kts 281°
2026-04-21 07:45 21.08081 -157.97293 5979 ft 264 kts 278°
2026-04-21 07:45 21.08376 -157.99217 5630 ft 263 kts 284°
2026-04-21 07:45 21.08888 -158.01079 5298 ft 261 kts 291°
2026-04-21 07:46 21.09582 -158.02889 4986 ft 260 kts 296°
2026-04-21 07:46 21.10381 -158.04620 4640 ft 259 kts 299°
2026-04-21 07:46 21.11248 -158.06282 4331 ft 257 kts 302°
2026-04-21 07:46 21.12246 -158.07860 4116 ft 251 kts 308°
2026-04-21 07:47 21.13334 -158.09277 4046 ft 242 kts 313°
2026-04-21 07:47 21.14467 -158.10597 3975 ft 235 kts 316°
2026-04-21 07:47 21.15770 -158.11534 3896 ft 224 kts 347°
2026-04-21 07:47 21.17289 -158.11462 3783 ft 220 kts 22°
2026-04-21 07:48 21.18540 -158.10551 3559 ft 216 kts 47°
2026-04-21 07:48 21.19470 -158.09308 3304 ft 213 kts 50°
2026-04-21 07:48 21.20423 -158.08095 3103 ft 208 kts 50°
2026-04-21 07:48 21.21303 -158.06912 2977 ft 199 kts 52°
2026-04-21 07:49 21.22115 -158.05753 2931 ft 187 kts 52°
2026-04-21 07:49 21.22894 -158.04652 2730 ft 189 kts 51°
2026-04-21 07:49 21.23688 -158.03546 2454 ft 188 kts 52°
2026-04-21 07:49 21.24459 -158.02454 2208 ft 180 kts 52°
2026-04-21 07:50 21.25215 -158.01392 1965 ft 172 kts 52°
2026-04-21 07:50 21.25915 -158.00412 1751 ft 163 kts 52°
2026-04-21 07:50 21.26602 -157.99443 1539 ft 165 kts 52°
2026-04-21 07:50 21.27294 -157.98468 1329 ft 162 kts 52°
2026-04-21 07:51 21.27979 -157.97507 1113 ft 162 kts 52°
2026-04-21 07:51 21.28657 -157.96549 933 ft 152 kts 53°
2026-04-21 07:51 21.29286 -157.95665 712 ft 145 kts 53°
2026-04-21 07:51 21.29890 -157.94815 522 ft 142 kts 54°
2026-04-21 07:52 21.30498 -157.93977 341 ft 142 kts 52°
2026-04-21 07:52 21.31102 -157.93133 157 ft 144 kts 54°
2026-04-21 07:52 21.31700 -157.92279 26 ft 138 kts 54°
2026-04-21 07:52 21.32113 -157.91689 19 ft 59 kts 53°
2026-04-21 07:53 21.32308 -157.91412 23 ft 17 kts 37°
2026-04-21 07:53 21.32408 -157.91371 25 ft 13 kts 18°
2026-04-21 07:53 21.32490 -157.91344 25 ft 12 kts 15°
2026-04-21 07:53 21.32567 -157.91327 27 ft 10 kts
2026-04-21 07:54 21.32628 -157.91318 30 ft 7 kts
2026-04-21 07:54 21.32679 -157.91312 31 ft 9 kts
2026-04-21 07:54 21.32756 -157.91310 34 ft 9 kts 307°
2026-04-21 07:54 21.32773 -157.91383 34 ft 13 kts 271°
2026-04-21 07:55 21.32772 -157.91510 33 ft 17 kts 270°
2026-04-21 07:55 21.32772 -157.91647 32 ft 19 kts 269°
2026-04-21 07:55 21.32795 -157.91667 33 ft 4 kts 31°
2026-04-21 07:55 21.32814 -157.91652 34 ft 2 kts 34°
2026-04-21 07:56 21.32836 -157.91649 35 ft 6 kts 357°
2026-04-21 07:56 21.32867 -157.91649 36 ft 2 kts 360°
2026-04-21 07:56 21.32878 -157.91649 36 ft 0 kts
2026-04-21 07:56 21.32880 -157.91649 36 ft 0 kts